Weather in Al-Kuwait

Kuwait     29˚21′55″N   47˚58′23″E
temp.,
°C
wind,
m/s
gust,
m/s
humid.,
%
clouds,
%
prec.,
mm/h
press.,
hPa
HPBL,
m
3 december, thu
thu300:00+20˚ne348261 0.9 1017370
03:00+20˚ne348453 2.5 1017342
06:00+20˚nne348872 2.7 1018352
09:00+20˚nnw338385 5.8 1019279
12:00+21˚nne117483 2.5 1018471
15:00+21˚ne337688 5.9 1017351
18:00+21˚e227792 2.6 1018231
21:00+21˚ese117796 3.6 1017176
4 december, fri
fri400:00+20˚n2281100 2.3 1017192
03:00+20˚nnw348484 5.2 1016243
06:00+20˚nne238498 2.1 1017279
09:00+20˚nne238184 5.1 1018323
12:00+21˚ene117011 0.6 1017400
15:00+22˚ne116725 1.8 1015387
18:00+21˚sw017376 2.0 1016219
21:00+22˚ne117079 2.4 1016217
5 december, sat
sat500:00+22˚nnw126820 0.2 1015339
03:00+21˚nnw226527 0.3 1014270
06:00+20˚n446380 0.0 1015278
09:00+20˚ne226062 0.0 1015299
12:00+21˚ne225455 0.0 1014472
15:00+21˚e225661 0.3 1011396
18:00+21˚ese346997 1.1 1012320
21:00+20˚ese337388 1.3 1011346
6 december, sun
sun600:00+20˚n117960 1.4 1011286
03:00+20˚n447880 1.9 1011385
06:00+19˚n567190 0.3 1011448
09:00+19˚n676778 0.9 1013435
12:00+19˚nnw786398 0.1 1012772
15:00+20˚nnw785995 0.1 10121054
18:00+19˚nw886214 0.0 10141051
21:00+18˚nw68649 0.0 1016814
7 december, mon
mon700:00+18˚wnw68540 0.0 1016841
03:00+17˚nw68480 0.0 1017704
06:00+17˚nw68470 0.0 1018520
09:00+17˚nw67430 0.0 1019517
12:00+19˚nw78330 0.0 1019982
15:00+20˚nw79310 0.0 10181277
18:00+19˚nw78360 0.0 10191194
21:00+19˚nw78400 0.0 10201032